#datetime,building,power
2022-11-29T00:00:00,pth,1.20
2022-11-29T00:02:00,pth,2.40
2022-11-29T00:04:00,pth,3.60
2022-11-29T00:06:00,pth,2.40
2022-11-29T00:08:00,pth,2.40
2022-11-29T00:10:00,pth,2.40
2022-11-29T00:12:00,pth,2.40
2022-11-29T00:13:00,pth,1.20
2022-11-29T00:15:00,pth,3.60
2022-11-29T00:16:00,pth,1.20
2022-11-29T00:17:00,pth,1.20
2022-11-29T00:19:00,pth,2.40
2022-11-29T00:20:00,pth,1.19
2022-11-29T00:21:00,pth,1.20
2022-11-29T00:23:00,pth,3.60
2022-11-29T00:25:00,pth,2.40
2022-11-29T00:27:00,pth,3.60
2022-11-29T00:28:00,pth,1.20
2022-11-29T00:30:00,pth,2.40
2022-11-29T00:32:00,pth,2.40
2022-11-29T00:33:00,pth,1.20
2022-11-29T00:34:00,pth,1.20
2022-11-29T00:35:00,pth,2.40
2022-11-29T00:37:00,pth,2.40
2022-11-29T00:39:00,pth,2.40
2022-11-29T00:40:00,pth,1.20
2022-11-29T00:42:00,pth,1.20
2022-11-29T00:44:00,pth,3.60
2022-11-29T00:47:00,pth,3.60
2022-11-29T00:48:00,pth,1.19
2022-11-29T00:50:00,pth,2.40
2022-11-29T00:51:00,pth,1.20
2022-11-29T00:53:00,pth,2.40
2022-11-29T00:55:00,pth,3.60
2022-11-29T00:56:00,pth,1.20
2022-11-29T00:58:00,pth,2.40
2022-11-29T01:00:00,pth,2.40
2022-11-29T01:02:00,pth,2.40
2022-11-29T01:04:00,pth,2.40
2022-11-29T01:05:00,pth,1.20
2022-11-29T01:07:00,pth,2.40
2022-11-29T01:09:00,pth,2.40
2022-11-29T01:11:00,pth,3.60
2022-11-29T01:12:00,pth,1.20
2022-11-29T01:14:00,pth,2.40
2022-11-29T01:16:00,pth,2.40
2022-11-29T01:17:00,pth,1.20
2022-11-29T01:19:00,pth,1.19
2022-11-29T01:21:00,pth,2.40
2022-11-29T01:23:00,pth,2.40
2022-11-29T01:25:00,pth,2.40
2022-11-29T01:26:00,pth,2.40
2022-11-29T01:28:00,pth,2.40
2022-11-29T01:29:00,pth,1.20
2022-11-29T01:31:00,pth,2.40
2022-11-29T01:32:00,pth,1.20
2022-11-29T01:34:00,pth,2.40
2022-11-29T01:36:00,pth,2.40
2022-11-29T01:38:00,pth,2.40
2022-11-29T01:39:00,pth,1.20
2022-11-29T01:40:00,pth,1.20
2022-11-29T01:42:00,pth,1.20
2022-11-29T01:43:00,pth,1.20
2022-11-29T01:45:00,pth,2.40
2022-11-29T01:46:00,pth,1.20
2022-11-29T01:48:00,pth,2.40
2022-11-29T01:49:00,pth,1.20
2022-11-29T01:51:00,pth,2.40
2022-11-29T01:53:00,pth,2.40
2022-11-29T01:54:00,pth,1.20
2022-11-29T01:56:00,pth,2.40
2022-11-29T01:57:00,pth,1.20
2022-11-29T01:59:00,pth,2.40
2022-11-29T02:00:00,pth,1.20
2022-11-29T02:02:00,pth,2.40
2022-11-29T02:03:00,pth,1.20
2022-11-29T02:05:00,pth,2.40
2022-11-29T02:07:00,pth,1.20
2022-11-29T02:09:00,pth,2.40
2022-11-29T02:11:00,pth,2.40
2022-11-29T02:13:00,pth,1.20
2022-11-29T02:14:00,pth,1.20
2022-11-29T02:15:00,pth,1.20
2022-11-29T02:17:00,pth,2.40
2022-11-29T02:19:00,pth,2.40
2022-11-29T02:21:00,pth,1.20
2022-11-29T02:23:00,pth,2.40
2022-11-29T02:24:00,pth,1.19
2022-11-29T02:26:00,pth,1.20
2022-11-29T02:27:00,pth,1.20
2022-11-29T02:29:00,pth,2.40
2022-11-29T02:31:00,pth,1.20
2022-11-29T02:33:00,pth,2.40
2022-11-29T02:34:00,pth,1.20
2022-11-29T02:36:00,pth,2.40
2022-11-29T02:37:00,pth,1.20
2022-11-29T02:39:00,pth,1.20
2022-11-29T02:41:00,pth,2.40
2022-11-29T02:42:00,pth,1.20
2022-11-29T02:44:00,pth,2.40
2022-11-29T02:46:00,pth,1.20
2022-11-29T02:48:00,pth,2.40
2022-11-29T02:50:00,pth,2.40
2022-11-29T02:52:00,pth,2.40
2022-11-29T02:53:00,pth,1.19
2022-11-29T02:54:00,pth,1.20
2022-11-29T02:56:00,pth,2.40
2022-11-29T02:58:00,pth,1.20
2022-11-29T03:00:00,pth,2.40
2022-11-29T03:01:00,pth,1.20
2022-11-29T03:03:00,pth,1.20
2022-11-29T03:05:00,pth,2.40
2022-11-29T03:06:00,pth,1.20
2022-11-29T03:08:00,pth,2.40
2022-11-29T03:10:00,pth,1.20
2022-11-29T03:12:00,pth,2.40
2022-11-29T03:13:00,pth,1.20
2022-11-29T03:15:00,pth,1.20
2022-11-29T03:17:00,pth,2.40
2022-11-29T03:19:00,pth,2.40
2022-11-29T03:22:00,pth,2.40
2022-11-29T03:24:00,pth,2.40
2022-11-29T03:25:00,pth,1.20
2022-11-29T03:27:00,pth,1.20
2022-11-29T03:29:00,pth,2.40
2022-11-29T03:30:00,pth,1.19
2022-11-29T03:32:00,pth,2.40
2022-11-29T03:34:00,pth,2.40
2022-11-29T03:36:00,pth,2.40
2022-11-29T03:37:00,pth,1.19
2022-11-29T03:39:00,pth,2.40
2022-11-29T03:41:00,pth,2.40
2022-11-29T03:43:00,pth,1.20
2022-11-29T03:44:00,pth,1.19
2022-11-29T03:46:00,pth,2.40
2022-11-29T03:48:00,pth,2.40
2022-11-29T03:50:00,pth,2.40
2022-11-29T03:52:00,pth,2.40
2022-11-29T03:54:00,pth,2.40
2022-11-29T03:56:00,pth,2.40
2022-11-29T03:58:00,pth,2.40
2022-11-29T03:59:00,pth,1.20
2022-11-29T04:01:00,pth,2.40
2022-11-29T04:02:00,pth,1.20
2022-11-29T04:03:00,pth,1.19
2022-11-29T04:05:00,pth,2.40
2022-11-29T04:07:00,pth,2.40
2022-11-29T04:08:00,pth,1.20
2022-11-29T04:10:00,pth,1.19
2022-11-29T04:11:00,pth,1.20
2022-11-29T04:13:00,pth,2.40
2022-11-29T04:15:00,pth,2.40
2022-11-29T04:16:00,pth,1.19
2022-11-29T04:17:00,pth,1.20
2022-11-29T04:19:00,pth,1.20
2022-11-29T04:21:00,pth,2.40
2022-11-29T04:22:00,pth,1.20
2022-11-29T04:24:00,pth,1.19
2022-11-29T04:25:00,pth,1.20
2022-11-29T04:27:00,pth,2.40
2022-11-29T04:28:00,pth,1.20
2022-11-29T04:30:00,pth,1.20
2022-11-29T04:32:00,pth,2.40
2022-11-29T04:34:00,pth,1.20
2022-11-29T04:36:00,pth,2.40
2022-11-29T04:38:00,pth,2.40
2022-11-29T04:40:00,pth,1.19
2022-11-29T04:41:00,pth,1.20
2022-11-29T04:43:00,pth,2.40
2022-11-29T04:45:00,pth,1.20
2022-11-29T04:46:00,pth,1.20
2022-11-29T04:48:00,pth,2.40
2022-11-29T04:50:00,pth,1.20
2022-11-29T04:51:00,pth,1.20
2022-11-29T04:52:00,pth,1.20
2022-11-29T04:54:00,pth,2.40
2022-11-29T04:56:00,pth,1.20
2022-11-29T04:57:00,pth,1.20
2022-11-29T04:59:00,pth,2.40
2022-11-29T05:01:00,pth,2.40
2022-11-29T05:03:00,pth,2.40
2022-11-29T05:04:00,pth,1.20
2022-11-29T05:06:00,pth,1.20
2022-11-29T05:07:00,pth,1.20
2022-11-29T05:09:00,pth,2.40
2022-11-29T05:11:00,pth,2.40
2022-11-29T05:13:00,pth,2.40
2022-11-29T05:15:00,pth,1.20
2022-11-29T05:16:00,pth,1.19
2022-11-29T05:18:00,pth,2.40
2022-11-29T05:20:00,pth,2.40
2022-11-29T05:23:00,pth,2.40
2022-11-29T05:24:00,pth,1.20
2022-11-29T05:25:00,pth,1.20
2022-11-29T05:28:00,pth,2.40
2022-11-29T05:30:00,pth,2.40
2022-11-29T05:32:00,pth,1.19
2022-11-29T05:34:00,pth,2.40
2022-11-29T05:35:00,pth,1.20
2022-11-29T05:37:00,pth,2.40
2022-11-29T05:38:00,pth,1.19
2022-11-29T05:40:00,pth,2.40
2022-11-29T05:42:00,pth,1.20
2022-11-29T05:43:00,pth,1.20
2022-11-29T05:45:00,pth,2.40
2022-11-29T05:47:00,pth,2.40
2022-11-29T05:49:00,pth,2.40
2022-11-29T05:51:00,pth,2.40
2022-11-29T05:53:00,pth,1.20
2022-11-29T05:55:00,pth,2.40
2022-11-29T05:56:00,pth,1.20
2022-11-29T05:58:00,pth,2.40
2022-11-29T05:59:00,pth,1.19
2022-11-29T06:01:00,pth,1.20
2022-11-29T06:02:00,pth,1.20
2022-11-29T06:04:00,pth,2.40
2022-11-29T06:05:00,pth,1.20
2022-11-29T06:06:00,pth,1.19
2022-11-29T06:08:00,pth,2.40
2022-11-29T06:10:00,pth,2.40
2022-11-29T06:12:00,pth,2.40
2022-11-29T06:13:00,pth,1.20
2022-11-29T06:15:00,pth,1.20
2022-11-29T06:16:00,pth,1.20
2022-11-29T06:17:00,pth,1.20
2022-11-29T06:19:00,pth,2.40
2022-11-29T06:21:00,pth,2.40
2022-11-29T06:23:00,pth,1.20
2022-11-29T06:25:00,pth,2.40
2022-11-29T06:26:00,pth,1.20
2022-11-29T06:28:00,pth,2.40
2022-11-29T06:31:00,pth,2.40
2022-11-29T06:33:00,pth,1.20
2022-11-29T06:35:00,pth,2.40
2022-11-29T06:36:00,pth,1.20
2022-11-29T06:38:00,pth,2.40
2022-11-29T06:40:00,pth,1.20
2022-11-29T06:42:00,pth,2.40
2022-11-29T06:44:00,pth,2.40
2022-11-29T06:46:00,pth,1.20
2022-11-29T06:48:00,pth,2.40
2022-11-29T06:49:00,pth,1.19
2022-11-29T06:51:00,pth,1.20
2022-11-29T06:53:00,pth,2.40
2022-11-29T06:55:00,pth,2.40
2022-11-29T06:57:00,pth,1.20
2022-11-29T06:58:00,pth,1.19
2022-11-29T07:00:00,pth,1.20
2022-11-29T07:02:00,pth,2.40
2022-11-29T07:04:00,pth,1.20
2022-11-29T07:05:00,pth,1.20
2022-11-29T07:07:00,pth,2.40
2022-11-29T07:09:00,pth,1.20
2022-11-29T07:11:00,pth,2.40
2022-11-29T07:13:00,pth,2.40
2022-11-29T07:14:00,pth,1.20
2022-11-29T07:16:00,pth,1.20
2022-11-29T07:18:00,pth,2.40
2022-11-29T07:19:00,pth,1.20
2022-11-29T07:21:00,pth,2.40
2022-11-29T07:22:00,pth,1.20
2022-11-29T07:24:00,pth,2.40
2022-11-29T07:26:00,pth,3.60
2022-11-29T07:27:00,pth,1.20
2022-11-29T07:29:00,pth,2.40
2022-11-29T07:30:00,pth,1.20
2022-11-29T07:32:00,pth,2.40
2022-11-29T07:34:00,pth,2.40
2022-11-29T07:36:00,pth,3.60
2022-11-29T07:38:00,pth,2.40
2022-11-29T07:39:00,pth,1.20
2022-11-29T07:41:00,pth,2.40
2022-11-29T07:42:00,pth,1.20
2022-11-29T07:44:00,pth,3.60
2022-11-29T07:46:00,pth,2.40
2022-11-29T07:47:00,pth,1.20
2022-11-29T07:49:00,pth,2.40
2022-11-29T07:50:00,pth,2.40
2022-11-29T07:52:00,pth,3.60
2022-11-29T07:53:00,pth,2.40
2022-11-29T07:55:00,pth,4.80
2022-11-29T07:56:00,pth,2.40
2022-11-29T07:58:00,pth,4.80
2022-11-29T07:59:00,pth,1.19
2022-11-29T08:01:00,pth,2.40
2022-11-29T08:03:00,pth,3.60
2022-11-29T08:05:00,pth,2.40
2022-11-29T08:06:00,pth,1.20
2022-11-29T08:09:00,pth,3.60
2022-11-29T08:10:00,pth,1.20
2022-11-29T08:13:00,pth,2.40
2022-11-29T08:15:00,pth,2.40
2022-11-29T08:17:00,pth,2.40
2022-11-29T08:18:00,pth,1.19
2022-11-29T08:21:00,pth,2.40
2022-11-29T08:22:00,pth,1.20
2022-11-29T08:24:00,pth,2.40
2022-11-29T08:26:00,pth,1.19
2022-11-29T08:28:00,pth,2.40
2022-11-29T08:30:00,pth,2.40
2022-11-29T08:32:00,pth,1.20
2022-11-29T08:34:00,pth,2.40
2022-11-29T08:35:00,pth,1.20
2022-11-29T08:37:00,pth,1.20
2022-11-29T08:39:00,pth,1.20
2022-11-29T08:41:00,pth,2.40
2022-11-29T08:43:00,pth,1.19
2022-11-29T08:44:00,pth,1.20
2022-11-29T08:45:00,pth,1.20
2022-11-29T08:46:00,pth,1.20
2022-11-29T08:49:00,pth,1.20
2022-11-29T08:50:00,pth,1.20
2022-11-29T08:51:00,pth,1.19
2022-11-29T08:53:00,pth,1.20
2022-11-29T08:55:00,pth,2.40
2022-11-29T08:56:00,pth,1.20
2022-11-29T08:58:00,pth,1.20
2022-11-29T08:59:00,pth,1.19
2022-11-29T09:01:00,pth,2.40
2022-11-29T09:04:00,pth,2.40
2022-11-29T09:05:00,pth,1.20
2022-11-29T09:07:00,pth,1.20
2022-11-29T09:09:00,pth,2.40
2022-11-29T09:10:00,pth,1.20
2022-11-29T09:12:00,pth,1.20
2022-11-29T09:13:00,pth,1.20
2022-11-29T09:15:00,pth,2.40
2022-11-29T09:16:00,pth,1.20
2022-11-29T09:18:00,pth,1.20
2022-11-29T09:20:00,pth,1.20
2022-11-29T09:21:00,pth,1.20
2022-11-29T09:23:00,pth,2.40
2022-11-29T09:26:00,pth,2.40
2022-11-29T09:29:00,pth,2.40
2022-11-29T09:32:00,pth,2.40
2022-11-29T09:33:00,pth,1.20
2022-11-29T09:35:00,pth,1.20
2022-11-29T09:36:00,pth,1.20
2022-11-29T09:37:00,pth,1.20
2022-11-29T09:39:00,pth,2.40
2022-11-29T09:40:00,pth,1.19
2022-11-29T09:42:00,pth,1.20
2022-11-29T09:44:00,pth,2.40
2022-11-29T09:46:00,pth,1.20
2022-11-29T09:48:00,pth,2.40
2022-11-29T09:49:00,pth,1.20
2022-11-29T09:51:00,pth,2.40
2022-11-29T09:54:00,pth,2.40
2022-11-29T09:56:00,pth,1.19
2022-11-29T09:57:00,pth,1.20
2022-11-29T09:59:00,pth,2.40
2022-11-29T10:01:00,pth,2.40
2022-11-29T10:02:00,pth,1.19
2022-11-29T10:04:00,pth,2.40
2022-11-29T10:06:00,pth,1.20
2022-11-29T10:08:00,pth,2.40
2022-11-29T10:10:00,pth,1.20
2022-11-29T10:12:00,pth,1.19
2022-11-29T10:14:00,pth,2.40
2022-11-29T10:15:00,pth,1.20
2022-11-29T10:17:00,pth,1.20
2022-11-29T10:19:00,pth,2.40
2022-11-29T10:22:00,pth,2.40
2022-11-29T10:23:00,pth,1.20
2022-11-29T10:26:00,pth,2.40
2022-11-29T10:27:00,pth,1.19
2022-11-29T10:28:00,pth,1.20
2022-11-29T10:30:00,pth,2.40
2022-11-29T10:33:00,pth,2.40
2022-11-29T10:35:00,pth,1.19
2022-11-29T10:37:00,pth,2.40
2022-11-29T10:39:00,pth,1.20
2022-11-29T10:41:00,pth,2.40
2022-11-29T10:42:00,pth,1.20
2022-11-29T10:44:00,pth,2.40
2022-11-29T10:45:00,pth,1.20
2022-11-29T10:47:00,pth,1.20
2022-11-29T10:48:00,pth,1.20
2022-11-29T10:50:00,pth,1.20
2022-11-29T10:52:00,pth,2.40
2022-11-29T10:53:00,pth,1.20
2022-11-29T10:55:00,pth,3.60
2022-11-29T10:57:00,pth,3.60
2022-11-29T10:58:00,pth,2.40
2022-11-29T11:00:00,pth,2.40
2022-11-29T11:01:00,pth,1.20
2022-11-29T11:02:00,pth,1.20
2022-11-29T11:04:00,pth,2.40
2022-11-29T11:06:00,pth,1.20
2022-11-29T11:07:00,pth,1.20
2022-11-29T11:09:00,pth,2.40
2022-11-29T11:11:00,pth,1.20
2022-11-29T11:13:00,pth,2.40
2022-11-29T11:15:00,pth,2.40
2022-11-29T11:17:00,pth,1.20
2022-11-29T11:19:00,pth,2.40
2022-11-29T11:20:00,pth,1.20
2022-11-29T11:23:00,pth,2.40
2022-11-29T11:25:00,pth,2.40
2022-11-29T11:27:00,pth,2.40
2022-11-29T11:28:00,pth,1.20
2022-11-29T11:30:00,pth,2.40
2022-11-29T11:32:00,pth,2.40
2022-11-29T11:33:00,pth,1.20
2022-11-29T11:35:00,pth,2.40
2022-11-29T11:37:00,pth,2.40
2022-11-29T11:38:00,pth,1.20
2022-11-29T11:40:00,pth,1.20
2022-11-29T11:41:00,pth,1.20
2022-11-29T11:43:00,pth,2.40
2022-11-29T11:45:00,pth,2.40
2022-11-29T11:47:00,pth,2.40
2022-11-29T11:49:00,pth,2.40
2022-11-29T11:50:00,pth,1.20
2022-11-29T11:52:00,pth,2.40
2022-11-29T11:53:00,pth,1.20
2022-11-29T11:55:00,pth,2.40
2022-11-29T11:56:00,pth,1.20
2022-11-29T11:58:00,pth,2.40
2022-11-29T12:00:00,pth,2.40
2022-11-29T12:01:00,pth,1.20
2022-11-29T12:02:00,pth,1.19
2022-11-29T12:04:00,pth,3.60
2022-11-29T12:05:00,pth,1.20
2022-11-29T12:07:00,pth,4.80
2022-11-29T12:09:00,pth,3.60
2022-11-29T12:10:00,pth,1.19
2022-11-29T12:12:00,pth,4.80
2022-11-29T12:14:00,pth,3.60
2022-11-29T12:15:00,pth,2.40
2022-11-29T12:17:00,pth,4.80
2022-11-29T12:19:00,pth,3.60
2022-11-29T12:21:00,pth,3.60
2022-11-29T12:22:00,pth,1.20
2022-11-29T12:23:00,pth,2.40
2022-11-29T12:24:00,pth,1.20
2022-11-29T12:25:00,pth,1.20
2022-11-29T12:27:00,pth,3.60
2022-11-29T12:29:00,pth,2.40
2022-11-29T12:31:00,pth,2.40
2022-11-29T12:32:00,pth,1.20
2022-11-29T12:34:00,pth,2.40
2022-11-29T12:35:00,pth,1.20
2022-11-29T12:37:00,pth,2.40
2022-11-29T12:38:00,pth,1.19
2022-11-29T12:40:00,pth,1.20
2022-11-29T12:41:00,pth,1.20
2022-11-29T12:43:00,pth,2.40
2022-11-29T12:46:00,pth,2.40
2022-11-29T12:47:00,pth,1.20
2022-11-29T12:50:00,pth,2.40
2022-11-29T12:52:00,pth,2.40
2022-11-29T12:54:00,pth,2.40
2022-11-29T12:55:00,pth,1.20
2022-11-29T12:57:00,pth,2.40
2022-11-29T12:59:00,pth,2.40
2022-11-29T13:00:00,pth,1.20
2022-11-29T13:02:00,pth,2.40
2022-11-29T13:04:00,pth,2.40
2022-11-29T13:06:00,pth,2.40
2022-11-29T13:07:00,pth,1.20
2022-11-29T13:09:00,pth,2.40
2022-11-29T13:11:00,pth,1.20
2022-11-29T13:13:00,pth,2.40
2022-11-29T13:15:00,pth,1.20
2022-11-29T13:17:00,pth,2.40
2022-11-29T13:20:00,pth,2.40
2022-11-29T13:22:00,pth,1.19
2022-11-29T13:24:00,pth,1.20
2022-11-29T13:26:00,pth,1.20
2022-11-29T13:28:00,pth,1.20
2022-11-29T13:30:00,pth,2.40
2022-11-29T13:33:00,pth,2.40
2022-11-29T13:34:00,pth,1.20
2022-11-29T13:36:00,pth,1.20
2022-11-29T13:38:00,pth,1.20
2022-11-29T13:39:00,pth,1.20
2022-11-29T13:41:00,pth,1.20
2022-11-29T13:43:00,pth,2.40
2022-11-29T13:45:00,pth,1.20
2022-11-29T13:47:00,pth,2.40
2022-11-29T13:48:00,pth,1.20
2022-11-29T13:50:00,pth,2.40
2022-11-29T13:52:00,pth,1.20
2022-11-29T13:53:00,pth,1.20
2022-11-29T13:55:00,pth,1.20
2022-11-29T13:57:00,pth,1.20
2022-11-29T13:59:00,pth,2.40
2022-11-29T14:01:00,pth,2.40
2022-11-29T14:04:00,pth,2.40
2022-11-29T14:07:00,pth,2.40
2022-11-29T14:09:00,pth,2.40
2022-11-29T14:10:00,pth,1.20
2022-11-29T14:11:00,pth,2.40
2022-11-29T14:12:00,pth,1.19
2022-11-29T14:14:00,pth,4.80
2022-11-29T14:15:00,pth,1.20
2022-11-29T14:17:00,pth,2.40
2022-11-29T14:19:00,pth,1.20
2022-11-29T14:21:00,pth,2.40
2022-11-29T14:22:00,pth,1.20
2022-11-29T14:23:00,pth,1.19
2022-11-29T14:24:00,pth,1.20
2022-11-29T14:26:00,pth,1.20
2022-11-29T14:27:00,pth,1.20
2022-11-29T14:29:00,pth,1.20
2022-11-29T14:31:00,pth,2.40
2022-11-29T14:33:00,pth,1.20
2022-11-29T14:34:00,pth,1.20
2022-11-29T14:35:00,pth,1.20
2022-11-29T14:37:00,pth,2.40
2022-11-29T14:39:00,pth,1.20
2022-11-29T14:41:00,pth,2.40
2022-11-29T14:43:00,pth,2.40
2022-11-29T14:45:00,pth,3.60
2022-11-29T14:47:00,pth,2.40
2022-11-29T14:49:00,pth,2.40
2022-11-29T14:51:00,pth,1.20
2022-11-29T14:53:00,pth,2.40
2022-11-29T14:55:00,pth,1.20
2022-11-29T14:57:00,pth,2.40
2022-11-29T15:00:00,pth,2.40
2022-11-29T15:02:00,pth,1.20
2022-11-29T15:03:00,pth,1.20
2022-11-29T15:05:00,pth,1.20
2022-11-29T15:07:00,pth,2.40
2022-11-29T15:09:00,pth,1.20
2022-11-29T15:10:00,pth,1.19
2022-11-29T15:12:00,pth,1.20
2022-11-29T15:13:00,pth,1.20
2022-11-29T15:15:00,pth,1.20
2022-11-29T15:17:00,pth,2.40
2022-11-29T15:19:00,pth,2.40
2022-11-29T15:20:00,pth,1.20
2022-11-29T15:22:00,pth,1.20
2022-11-29T15:24:00,pth,1.20
2022-11-29T15:26:00,pth,2.40
2022-11-29T15:27:00,pth,1.20
2022-11-29T15:29:00,pth,1.20
2022-11-29T15:30:00,pth,1.20
2022-11-29T15:32:00,pth,2.40
2022-11-29T15:33:00,pth,1.19
2022-11-29T15:35:00,pth,2.40
2022-11-29T15:37:00,pth,1.20
2022-11-29T15:39:00,pth,2.40
2022-11-29T15:41:00,pth,2.40
2022-11-29T15:42:00,pth,1.20
2022-11-29T15:44:00,pth,2.40
2022-11-29T15:46:00,pth,3.60
2022-11-29T15:47:00,pth,1.20
2022-11-29T15:49:00,pth,2.40
2022-11-29T15:50:00,pth,1.20
2022-11-29T15:51:00,pth,1.20
2022-11-29T15:53:00,pth,2.40
2022-11-29T15:55:00,pth,2.40
2022-11-29T15:57:00,pth,2.40
2022-11-29T15:59:00,pth,2.40
2022-11-29T16:01:00,pth,2.40
2022-11-29T16:03:00,pth,3.60
2022-11-29T16:05:00,pth,2.40
2022-11-29T16:07:00,pth,2.40
2022-11-29T16:08:00,pth,1.20
2022-11-29T16:10:00,pth,2.40
2022-11-29T16:11:00,pth,1.20
2022-11-29T16:13:00,pth,8.40
2022-11-29T16:15:00,pth,13.20
2022-11-29T16:16:00,pth,7.20
2022-11-29T16:18:00,pth,14.40
2022-11-29T16:19:00,pth,7.21
2022-11-29T16:21:00,pth,13.20
2022-11-29T16:23:00,pth,15.60
2022-11-29T16:24:00,pth,7.20
2022-11-29T16:26:00,pth,14.40
2022-11-29T16:27:00,pth,7.20
2022-11-29T16:29:00,pth,14.40
2022-11-29T16:31:00,pth,13.20
2022-11-29T16:33:00,pth,13.20
2022-11-29T16:35:00,pth,14.40
2022-11-29T16:36:00,pth,7.21
2022-11-29T16:38:00,pth,13.20
2022-11-29T16:40:00,pth,13.20
2022-11-29T16:41:00,pth,6.00
2022-11-29T16:43:00,pth,13.20
2022-11-29T16:45:00,pth,13.21
2022-11-29T16:46:00,pth,7.20
2022-11-29T16:48:00,pth,13.20
2022-11-29T16:49:00,pth,6.00
2022-11-29T16:51:00,pth,13.20
2022-11-29T16:53:00,pth,13.21
2022-11-29T16:55:00,pth,13.20
2022-11-29T16:56:00,pth,7.20
2022-11-29T16:58:00,pth,13.20
2022-11-29T16:59:00,pth,7.20
2022-11-29T17:01:00,pth,9.60
2022-11-29T17:03:00,pth,13.20
2022-11-29T17:05:00,pth,10.80
2022-11-29T17:07:00,pth,3.60
2022-11-29T17:08:00,pth,1.20
2022-11-29T17:10:00,pth,6.00
2022-11-29T17:11:00,pth,1.20
2022-11-29T17:13:00,pth,2.40
2022-11-29T17:15:00,pth,2.40
2022-11-29T17:17:00,pth,3.60
2022-11-29T17:19:00,pth,2.40
2022-11-29T17:21:00,pth,1.20
2022-11-29T17:23:00,pth,2.40
2022-11-29T17:25:00,pth,1.20
2022-11-29T17:26:00,pth,1.20
2022-11-29T17:28:00,pth,2.40
2022-11-29T17:29:00,pth,1.19
2022-11-29T17:30:00,pth,1.20
2022-11-29T17:32:00,pth,2.40
2022-11-29T17:33:00,pth,2.40
2022-11-29T17:35:00,pth,3.60
2022-11-29T17:36:00,pth,1.20
2022-11-29T17:37:00,pth,1.20
2022-11-29T17:39:00,pth,3.60
2022-11-29T17:41:00,pth,3.60
2022-11-29T17:43:00,pth,3.60
2022-11-29T17:45:00,pth,2.40
2022-11-29T17:47:00,pth,2.40
2022-11-29T17:48:00,pth,1.20
2022-11-29T17:50:00,pth,2.40
2022-11-29T17:52:00,pth,3.60
2022-11-29T17:53:00,pth,2.40
2022-11-29T17:55:00,pth,2.40
2022-11-29T17:56:00,pth,2.40
2022-11-29T17:58:00,pth,8.40
2022-11-29T17:59:00,pth,7.20
2022-11-29T18:01:00,pth,13.20
2022-11-29T18:02:00,pth,7.20
2022-11-29T18:04:00,pth,15.60
2022-11-29T18:06:00,pth,14.40
2022-11-29T18:07:00,pth,7.20
2022-11-29T18:09:00,pth,14.40
2022-11-29T18:11:00,pth,14.40
2022-11-29T18:13:00,pth,14.40
2022-11-29T18:15:00,pth,15.60
2022-11-29T18:17:00,pth,13.20
2022-11-29T18:19:00,pth,13.21
2022-11-29T18:20:00,pth,8.40
2022-11-29T18:21:00,pth,8.39
2022-11-29T18:23:00,pth,14.41
2022-11-29T18:25:00,pth,15.59
2022-11-29T18:26:00,pth,7.20
2022-11-29T18:27:00,pth,7.21
2022-11-29T18:29:00,pth,15.59
2022-11-29T18:30:00,pth,7.20
2022-11-29T18:31:00,pth,7.21
2022-11-29T18:33:00,pth,14.40
2022-11-29T18:35:00,pth,14.40
2022-11-29T18:36:00,pth,7.20
2022-11-29T18:37:00,pth,7.20
2022-11-29T18:39:00,pth,15.60
2022-11-29T18:41:00,pth,14.40
2022-11-29T18:42:00,pth,6.00
2022-11-29T18:44:00,pth,13.20
2022-11-29T18:45:00,pth,7.20
2022-11-29T18:47:00,pth,13.20
2022-11-29T18:48:00,pth,6.01
2022-11-29T18:50:00,pth,13.20
2022-11-29T18:52:00,pth,2.40
2022-11-29T18:53:00,pth,7.20
2022-11-29T18:55:00,pth,12.00
2022-11-29T18:57:00,pth,7.20
2022-11-29T18:59:00,pth,2.40
2022-11-29T19:00:00,pth,1.20
2022-11-29T19:02:00,pth,8.39
2022-11-29T19:03:00,pth,7.21
2022-11-29T19:05:00,pth,13.20
2022-11-29T19:06:00,pth,7.20
2022-11-29T19:08:00,pth,14.40
2022-11-29T19:10:00,pth,13.20
2022-11-29T19:12:00,pth,14.40
2022-11-29T19:14:00,pth,13.20
2022-11-29T19:16:00,pth,13.21
2022-11-29T19:17:00,pth,7.20
2022-11-29T19:18:00,pth,7.20
2022-11-29T19:20:00,pth,13.20
2022-11-29T19:21:00,pth,7.20
2022-11-29T19:23:00,pth,13.20
2022-11-29T19:24:00,pth,6.00
2022-11-29T19:25:00,pth,7.21
2022-11-29T19:26:00,pth,7.20
2022-11-29T19:28:00,pth,13.20
2022-11-29T19:30:00,pth,13.20
2022-11-29T19:31:00,pth,7.20
2022-11-29T19:33:00,pth,14.40
2022-11-29T19:35:00,pth,13.20
2022-11-29T19:36:00,pth,7.20
2022-11-29T19:37:00,pth,7.20
2022-11-29T19:39:00,pth,13.21
2022-11-29T19:40:00,pth,7.20
2022-11-29T19:42:00,pth,13.20
2022-11-29T19:44:00,pth,14.40
2022-11-29T19:46:00,pth,13.20
2022-11-29T19:48:00,pth,8.40
2022-11-29T19:50:00,pth,9.60
2022-11-29T19:52:00,pth,14.40
2022-11-29T19:53:00,pth,6.00
2022-11-29T19:55:00,pth,13.20
2022-11-29T19:56:00,pth,1.20
2022-11-29T19:58:00,pth,9.60
2022-11-29T19:59:00,pth,6.00
2022-11-29T20:00:00,pth,6.00
2022-11-29T20:02:00,pth,2.40
2022-11-29T20:03:00,pth,1.20
2022-11-29T20:04:00,pth,2.40
2022-11-29T20:05:00,pth,1.19
2022-11-29T20:07:00,pth,2.40
2022-11-29T20:08:00,pth,1.20
2022-11-29T20:10:00,pth,2.40
2022-11-29T20:12:00,pth,2.40
2022-11-29T20:14:00,pth,2.40
2022-11-29T20:16:00,pth,2.40
2022-11-29T20:18:00,pth,3.60
2022-11-29T20:19:00,pth,1.20
2022-11-29T20:20:00,pth,2.40
2022-11-29T20:22:00,pth,2.40
2022-11-29T20:24:00,pth,2.40
2022-11-29T20:25:00,pth,1.20
2022-11-29T20:27:00,pth,2.40
2022-11-29T20:29:00,pth,3.60
2022-11-29T20:31:00,pth,2.40
2022-11-29T20:32:00,pth,1.20
2022-11-29T20:34:00,pth,2.40
2022-11-29T20:36:00,pth,2.40
2022-11-29T20:38:00,pth,2.40
2022-11-29T20:39:00,pth,1.20
2022-11-29T20:41:00,pth,2.40
2022-11-29T20:43:00,pth,2.40
2022-11-29T20:44:00,pth,1.20
2022-11-29T20:46:00,pth,3.60
2022-11-29T20:47:00,pth,2.40
2022-11-29T20:49:00,pth,3.60
2022-11-29T20:51:00,pth,2.40
2022-11-29T20:53:00,pth,3.60
2022-11-29T20:54:00,pth,1.19
2022-11-29T20:56:00,pth,3.60
2022-11-29T20:58:00,pth,3.60
2022-11-29T20:59:00,pth,1.19
2022-11-29T21:01:00,pth,3.60
2022-11-29T21:03:00,pth,4.80
2022-11-29T21:04:00,pth,1.20
2022-11-29T21:06:00,pth,3.60
2022-11-29T21:08:00,pth,3.60
2022-11-29T21:10:00,pth,3.60
2022-11-29T21:12:00,pth,4.80
2022-11-29T21:13:00,pth,1.20
2022-11-29T21:15:00,pth,4.80
2022-11-29T21:17:00,pth,4.80
2022-11-29T21:18:00,pth,2.40
2022-11-29T21:20:00,pth,3.60
2022-11-29T21:21:00,pth,2.40
2022-11-29T21:23:00,pth,3.60
2022-11-29T21:25:00,pth,6.00
2022-11-29T21:27:00,pth,4.80
2022-11-29T21:29:00,pth,6.00
2022-11-29T21:31:00,pth,7.20
2022-11-29T21:32:00,pth,3.60
2022-11-29T21:33:00,pth,3.60
2022-11-29T21:35:00,pth,7.20
2022-11-29T21:37:00,pth,6.00
2022-11-29T21:38:00,pth,2.40
2022-11-29T21:40:00,pth,4.80
2022-11-29T21:42:00,pth,9.60
2022-11-29T21:44:00,pth,6.00
2022-11-29T21:45:00,pth,4.80
2022-11-29T21:47:00,pth,3.60
2022-11-29T21:48:00,pth,1.20
2022-11-29T21:50:00,pth,13.20
2022-11-29T21:52:00,pth,14.40
2022-11-29T21:53:00,pth,7.20
2022-11-29T21:54:00,pth,7.20
2022-11-29T21:56:00,pth,14.40
2022-11-29T21:58:00,pth,14.40
2022-11-29T22:00:00,pth,15.60
2022-11-29T22:02:00,pth,14.40
2022-11-29T22:03:00,pth,7.20
2022-11-29T22:04:00,pth,7.20
2022-11-29T22:06:00,pth,15.60
2022-11-29T22:07:00,pth,8.40
2022-11-29T22:08:00,pth,8.40
2022-11-29T22:09:00,pth,8.40
2022-11-29T22:11:00,pth,15.60
2022-11-29T22:13:00,pth,16.80
2022-11-29T22:14:00,pth,7.20
2022-11-29T22:16:00,pth,16.79
2022-11-29T22:17:00,pth,7.20
2022-11-29T22:18:00,pth,7.20
2022-11-29T22:20:00,pth,15.60
2022-11-29T22:22:00,pth,14.40
2022-11-29T22:24:00,pth,14.41
2022-11-29T22:25:00,pth,7.20
2022-11-29T22:26:00,pth,8.39
2022-11-29T22:28:00,pth,14.41
2022-11-29T22:30:00,pth,14.40
2022-11-29T22:32:00,pth,14.40
2022-11-29T22:34:00,pth,14.40
2022-11-29T22:36:00,pth,14.40
2022-11-29T22:38:00,pth,14.40
2022-11-29T22:39:00,pth,7.20
2022-11-29T22:41:00,pth,14.40
2022-11-29T22:43:00,pth,14.40
2022-11-29T22:45:00,pth,13.20
2022-11-29T22:47:00,pth,4.80
2022-11-29T22:48:00,pth,1.20
2022-11-29T22:50:00,pth,3.60
2022-11-29T22:52:00,pth,2.40
2022-11-29T22:53:00,pth,1.20
2022-11-29T22:55:00,pth,3.60
2022-11-29T22:56:00,pth,1.20
2022-11-29T22:58:00,pth,2.40
2022-11-29T22:59:00,pth,2.40
2022-11-29T23:01:00,pth,2.40
2022-11-29T23:03:00,pth,2.40
2022-11-29T23:05:00,pth,2.40
2022-11-29T23:07:00,pth,3.60
2022-11-29T23:08:00,pth,1.20
2022-11-29T23:10:00,pth,2.40
2022-11-29T23:12:00,pth,3.60
2022-11-29T23:13:00,pth,1.20
2022-11-29T23:15:00,pth,2.40